DELTA 1 DEB, 7038

Orbit data source: Space-Track

DELTA 1 DEB, 7038 is space debris in SSO originally from a launch on Tue, 06 Nov 1973 UTC launched from the Air Force Western Test Range (AFWTR). Debris objects in space refer to the collection of defunct objects orbiting the Earth. Examples of debris include non-operational satellites, rocket bodies, and fragments generated from explosions, collisions, or faulty payload assembly.

Loading next visibility...
DELTA 1 DEB details
Identifier
7038, 1973-086AE
Orbit
SSO
Last TLE update11 hours ago
Origin
Flag of USGSFC (US)
ManufacturerUnknown
MissionSpacecraft
Bus & MotorUnknown
MassUnknown
Launch date (UTC)
1973-11-06 (51 years ago)
Launch vehicleUnknown
Launch site
Air Force Western Test Range (AFWTR)
Object type
Payload
Rocket body
Debris
Shape & HBRUnknown
Radar Cross SectionMedium (>0.1 m² and <1 m²)

Expand to show TLE details & history

TLE from 11 hours ago
0 DELTA 1 DEB
1 07038U 73086AE  25018.54401898  .00000220  00000-0  23330-2 0  9994
2 07038 101.9116 224.7902 0128817 355.5946  63.1886 12.24314136283528
Epoch: 2025-01-18T13:03Z
Definitive object data (Epoch: 2025-01-18T13:03:23.239Z)
Latitude58.12119°
Longitude-108.9744°
Altitude1,538.246 km
Speed7.123 km/s
True Right ascension13h 40m 15s
True Declination57° 58' 55"
Sunlit
Object was in daylight at TLE epoch
Visualization TLE readout
Latitude-78.07952°
Longitude-4.8838°
Altitude1,588.589 km
Speed7.08 km/s
Apparent Right ascension14h 14m 03s
Apparent Declination-69° 23' 38"
Sunlit
Object is in daylight
Visualization observer readout
Local Sidereal Time00:55:44
Azimuth193.143° SSW
Elevation-58.752°
Doppler factor1
Orbital elements
Apogee altitude1,673.799 km
Perigee altitude1,468.992 km
Semi-major axis7,949.533 km
Eccentricity0.0128817
Inclination101.9116°
RAAN224.7902°
Arg. of periapsis355.5946°
True anomaly64.51556°
Mean anomaly63.1886°
Eccentric anomaly63.85113°
Mean motion3.06218 °/min
BSTAR0.002333
Orbital period117.56 mins
Loading maneuver chart data...
Loading historical data...
Loading historical data...
Loading historical data...
Loading historical data...
Loading historical data...
Loading historical data...
Loading historical data...

DELTA 1 DEB Visibility forecast

Observer location: undefined°, undefined

Span
Click to sort rows by Start time (UTC) header in descending order
Start Az.
Max El. time (UTC)
Max El. Az.
Max El.
End time (UTC)
End Az.
14 mins2025-01-19 01:09:38.415Z41.82° NE2025-01-19 01:16:38.415Z95.981° ESE25.619°2025-01-19 01:23:38.415Z148.876° SSE
17 mins2025-01-19 03:04:38.415Z11.366° NNE2025-01-19 03:12:38.415Z284.405° WNW42.887°2025-01-19 03:21:38.415Z212.801° SW
8 mins2025-01-19 05:02:38.415Z338.581° N2025-01-19 05:05:38.415Z316.922° NNW16.329°2025-01-19 05:10:38.415Z281.799° WNW
14 mins2025-01-19 12:24:38.415Z124.227° SE2025-01-19 12:30:38.415Z60.54° ENE35.438°2025-01-19 12:38:38.415Z353.411° N
14 mins2025-01-19 14:19:38.415Z197.789° SSW2025-01-19 14:25:38.415Z255.342° W33.302°2025-01-19 14:33:38.415Z327.993° NNW
|